Regional Weather Roundup
Issued by NWS

Home | Current Version | Previous Version | Text Only | Print | Product List | Glossary On
Versions: 1 2 3 4 5 6 7 8 9 10 11 12 13 14 15 16 17 18 19 20 21 22 23 24 25 26 27 28 29 30 31 32 33 34 35 36 37 38 39 40 41 42 43 44 45 46 47 48 49 50
000
ASUS44 KLUB 121901
RWRTX
WEST TEXAS WEATHER ROUNDUP
NATIONAL WEATHER SERVICE LUBBOCK TX
200 PM CDT SAT JUL 12 2014

NOTE: "FAIR" INDICATES FEW OR NO CLOUDS BELOW 12,000 FEET WITH NO
SIGNIFICANT WEATHER AND/OR OBSTRUCTIONS TO VISIBILITY.

TXZ004-006>008-010-012-014-016-OKZ002-122000-
TEXAS PANHANDLE/OKLAHOMA PANHANDLE

CITY           SKY/WX    TMP DP  RH WIND       PRES   REMARKS
AMARILLO       MOSUNNY   83  61  47 SW15G23   30.19F
BORGER         SUNNY     89  59  36 SW13G24   30.15F
CANADIAN       MOSUNNY   90  62  39 SW14G24   30.11F
DALHART        SUNNY     88  58  36 S17       30.19F
DUMAS          SUNNY     86  59  39 S10G23    30.17F
GUYMON         SUNNY     94  59  31 S21G28    30.08F
PERRYTON       SUNNY     92  57  30 SW15G28   30.12F
$$

TXZ026-029-035-045-048-122000-
SOUTHERN PANHANDLE/SOUTH PLAINS/ROLLING PLAINS

CITY           SKY/WX    TMP DP  RH WIND       PRES   REMARKS
CHILDRESS      MOSUNNY   93  60  33 SW18G31   30.12F
SEMINOLE       MOSUNNY   88  59  37 SE13      30.17F
LUBBOCK        PTSUNNY   82  63  52 S12G20    30.19F
SNYDER         SUNNY     89  55  31 SE16G26   30.16F
$$

TXZ052-054-060>062-072-078-127-140-154-169-122000-
PERMIAN BASIN/CONCHO VALLEY/BIG COUNTRY/EDWARDS PLATEAU

CITY           SKY/WX    TMP DP  RH WIND       PRES   REMARKS
ABILENE        SUNNY     94  46  19 S17G28    30.15F
BROWNWOOD      SUNNY     93  48  21 SE13G22   30.15F HAZE
JUNCTION       SUNNY     92  48  22 SE14G24   30.17F
MIDLAND        SUNNY     88  62  41 SE22      30.14F
ODESSA         MOSUNNY   88  60  38 S15       30.16F
SAN ANGELO     SUNNY     93  51  23 S16G23    30.15F
SWEETWATER     SUNNY     92  47  21 SE18G25   30.19F
WINK           MOSUNNY   90  62  39 SE14      30.11F
$$

TXZ055-058-074-075-080-082-122000-
FAR WEST/SOUTHWEST MOUNTAINS/TRANS PECOS

CITY           SKY/WX    TMP DP  RH WIND       PRES   REMARKS
ALPINE         PTSUNNY   84  56  37 S16       30.26F
DRYDEN           N/A     92  64  39 SE15G30   30.12F
EL PASO        MOSUNNY   89  55  31 VRB6      30.11F
FORT STOCKTON  MOSUNNY   89  62  40 SE21G29   30.13F
GUADALUPE PASS PTSUNNY   81  55  40 VRB5      30.26F
MARFA          MOSUNNY   82  59  44 S12       30.26F
PRESIDIO       FAIR      90  58  33 E7G17     30.10F
$$

TXZ014-016-019-021>030-083-122000
TEXAS TECH WEST TEXAS MESONET/TEXAS PANHANDLE/NORTHERN SOUTH PLAINS

CITY           SKY/WX    TMP DP  RH WIND       PRES   REMARKS
ABERNATHY 5ENE   N/A     82  61  48 S16       30.21F
AMARILLO 9NNE    N/A     85  62  45 SW9       30.17F
AMARILLO 7SSE    N/A     85  62  45 SW14      30.20F
AMHERST 1NE      N/A     78  63  59 S10       30.21F
BOOTLEG 11WNW    N/A     78  59  51 S10       30.25F
CANADIAN 6E      N/A     91  63  39 S14       30.11F
CAPROCK CYN SP   N/A     87  60  39 S15       30.16F
CHILDRESS 2NNE   N/A     91  58  32 S18       30.12F
CLARENDON 2WSW   N/A     86  58  37 S21       30.16F
CLAUDE 12SW      N/A     85  61  43 S12       30.19F
DIMMITT 2NE      N/A     80  61  51 S14       30.23S
FLOYDADA 2NNE    N/A     85  60  42 S15       30.19F
FRIONA 2NE       N/A     80  60  50 S14       30.23F
GOODLETT 3W      N/A     94  54  25 S22       30.09F
HART 3N          N/A     79  63  57 S9        30.22S
HEREFORD 2NW     N/A     80  60  50 S13       30.21F
MCLEAN 1E        N/A     89  58  35 S18       30.15F
MEMPHIS 1NE      N/A     90  58  34 SW14      30.12F
MULESHOE 2SSW    N/A     78  62  57 S13       30.21F
OLTON 6S         N/A     79  62  55 S13       30.21F
PALO DURO SP     N/A     85  61  45 S14       30.20F
PAMPA 2E         N/A     87  59  39 S14       30.17F
PLAINVIEW 1S     N/A     80  63  56 S8        30.20F
SILVERTON 7ESE   N/A     84  62  48 S16       30.19S
TULIA 2ENE       N/A     82  62  51 S15       30.21F
TURKEY 2WSW      N/A     88  60  39 S16       30.14F
UMBARGER 3NNE    N/A     83  62  47 S8        30.21F
$$

TXZ033>036-039>041-045>048-122000
TEXAS TECH WEST TEXAS MESONET/SOUTH PLAINS

CITY           SKY/WX    TMP DP  RH WIND       PRES   REMARKS
AIKEN 3WSW       N/A     83  65  53 S15       30.21S
ANDREWS 2NE      N/A     87  57  35 S10       30.17F
ANTON 6SSW       N/A     79  63  57 S13       30.20F
BROWNFIELD 2S    N/A     82  60  47 SE12      30.19F
DENVR CTY 7WNW   N/A     85  58  41 SE13      30.18F
GAIL 2ESE        N/A     90  56  32 S20G31    30.14F
LAMESA 2SE       N/A     86  63  45 S14       30.17F
LEVELLAND 4S     N/A     80  60  50 S9        30.21S
LUBBOCK 3WNW     N/A     81  61  50 SE10      30.20F
ODONNELL 1N      N/A     86  59  39 S13       30.17F
PLAINS 3N        N/A     83  61  47 SE8       30.20F
RALLS 1SE        N/A     83  62  48 S16       30.20F
REESE CENTER     N/A     80  61  52 S10       30.20F
SEAGRAVES 1SW    N/A     84  61  44 S13       30.17F
SEMINOLE 2NNE    N/A     87  59  39 S9        30.17F
SLATON 2NE       N/A     82  62  49 S13       30.19F
SNYDER 3E        N/A     92  51  24 S18       30.16F
SUNDOWN 8SW      N/A     80  63  55 S7        30.20F
TAHOKA 3NNE      N/A     85  61  43 S13       30.18F
WOLFFORTH 6SSW   N/A     82  61  49 S10       30.20F
$$

TXZ031-032-036>038-042>044-122000-
TEXAS TECH WEST TEXAS MESONET/ROLLING PLAINS

CITY           SKY/WX    TMP DP  RH WIND       PRES   REMARKS
ASPERMONT 3NE    N/A     96  44  16 S17G28    30.12F
FLUVANNA 3WNW    N/A     88  55  31 S20G29    30.16F
GRAHAM 5SSW      N/A     86  58  38 S15       30.16F
GUTHRIE 10WSW    N/A     94  46  19 S21       30.12F
HASKELL 1NW      N/A     94  38  14 S16       30.12F
JAYTON 1SSE      N/A     94  46  18 S16       30.13F
KNOX CITY 3NW    N/A     96  43  16 S21       30.11F
LK A HENRY 1NW   N/A     91  58  32 S15       30.14F
NORTHFIELD 1S    N/A     91  58  33 S17       30.12F
ODELL 4ENE       N/A     94  53  24 S23       30.10F
PADUCAH 10SW     N/A     92  53  26 S16       30.12F
POST 1NE         N/A     90  56  31 S14       30.15F
RRING SPRGS 3N   N/A     89  59  36 S20       30.16S
SEYMOUR 3NW      N/A     98  43  15 S16       30.10F
SPUR 1W          N/A     91  53  27 S17       30.13F
WEINERT 2NNE     N/A     96  45  17 S17       30.11F
WHITE RVR 6NE    N/A     90  59  35 S20       30.16F
$$

TXZ052-054-060>062-072-078-127-140-154-169-122000-
TEXAS TECH WEST TEXAS MESONET/PERMIAN BASIN/
CONCHO VALLEY/BIG COUNTRY/EDWARDS PLATEAU

CITY           SKY/WX    TMP DP  RH WIND       PRES   REMARKS
COYANOSA 2N      N/A     93  62  35 SE10      30.10F
JUNCTION 1SSW    N/A     92  54  27 S14       30.17F
MERTZON 3NNE     N/A     90  55  31 SE10      30.18S
SAN ANGELO 7NW   N/A     92  48  22 S18       30.16F
STRLNG CT 4WSW   N/A     90  56  31 SE16      30.17F
ST LAWRNCE 5SW   N/A     86  58  38 S21       30.17F
SWEETWATR 11SW   N/A     91  51  25 S18       30.18F
WALL 1E          N/A     92  46  20 S16       30.16F
$$

TXZ055-058-074-075-080-082-122000-
TEXAS TECH WEST TEXAS MESONET/FAR WEST/SOUTHWEST MOUNTAINS/TRANS PECOS

CITY           SKY/WX    TMP DP  RH WIND       PRES   REMARKS
PRSMN GAP BBNP   N/A     88  60  38 E2        30.12F
$$



USA.gov is the U.S. government's official web portal to all federal, state and local government web resources and services.